| time (UTC) | temp F | wind direction | speed MPH | gust MPH | rain 1hr in | rain 24hr in | rain mn in | humidity % | barometer mb |
| 20260904070051 | 51 | 277 | 1.0 | 2.0 | 0.00 | 0.01 | 0.00 | 75 | 1009.9 |
| 20260904064549 | 49 | 257 | 2.0 | 3.0 | 0.00 | 0.01 | 0.01 | 77 | 1009.9 |
| 20260904063048 | 48 | 281 | 3.0 | 3.0 | 0.00 | 0.01 | 0.01 | 78 | 1009.8 |
| 20260904061552 | 46 | 274 | 1.0 | 1.0 | 0.00 | 0.01 | 0.01 | 79 | 1009.9 |
| 20260904060047 | 46 | 263 | 0.0 | 1.0 | 0.00 | 0.01 | 0.01 | 78 | 1009.7 |
| 20260904054547 | 46 | 270 | 2.0 | 3.0 | 0.00 | 0.01 | 0.01 | 78 | 1009.7 |
| 20260904053046 | 48 | 256 | 1.0 | 2.0 | 0.00 | 0.01 | 0.01 | 75 | 1009.6 |
| 20260904051550 | 50 | 290 | 2.0 | 3.0 | 0.00 | 0.01 | 0.01 | 71 | 1009.7 |
| 20260904050045 | 52 | 283 | 2.0 | 4.0 | 0.00 | 0.01 | 0.01 | 66 | 1009.8 |
| 20260904044545 | 52 | 297 | 1.0 | 3.0 | 0.00 | 0.01 | 0.01 | 65 | 1009.9 |
| 20260904043046 | 52 | 306 | 1.0 | 4.0 | 0.00 | 0.01 | 0.01 | 66 | 1009.8 |
| 20260904041551 | 53 | 330 | 2.0 | 6.0 | 0.00 | 0.01 | 0.01 | 64 | 1009.8 |
| 20260904040043 | 54 | 316 | 1.0 | 2.0 | 0.00 | 0.01 | 0.01 | 64 | 1009.8 |
| 20260904034551 | 54 | 320 | 1.0 | 4.0 | 0.00 | 0.01 | 0.01 | 65 | 1009.5 |
| 20260904033042 | 54 | 296 | 1.0 | 2.0 | 0.00 | 0.01 | 0.01 | 65 | 1009.2 |
| 20260904031545 | 54 | 335 | 2.0 | 3.0 | 0.01 | 0.01 | 0.01 | 68 | 1009.1 |
| 20260904030041 | 55 | 326 | 1.0 | 4.0 | 0.01 | 0.01 | 0.01 | 73 | 1009.1 |
| 20260904024540 | 55 | 300 | 3.0 | 6.0 | 0.01 | 0.01 | 0.01 | 75 | 1009.1 |
| 20260904023040 | 56 | 76 | 0.0 | 2.0 | 0.01 | 0.01 | 0.01 | 69 | 1009.1 |
| 20260904021538 | 58 | 76 | 0.0 | 0.0 | 0.00 | 0.00 | 0.00 | 62 | 1009.1 |
| 20260904020037 | 58 | 75 | 1.0 | 5.0 | 0.00 | 0.00 | 0.00 | 61 | 1008.8 |
| 20260904014538 | 59 | 28 | 0.0 | 8.0 | 0.00 | 0.00 | 0.00 | 60 | 1008.5 |
| 20260904013037 | 60 | 340 | 4.0 | 8.0 | 0.00 | 0.00 | 0.00 | 57 | 1008.3 |
| 20260904011557 | 61 | 316 | 6.0 | 12.0 | 0.00 | 0.00 | 0.00 | 47 | 1008.2 |
| 20260904010036 | 61 | 297 | 10.0 | 16.0 | 0.00 | 0.00 | 0.00 | 46 | 1008.0 |
| 20260904004535 | 63 | 293 | 11.0 | 18.0 | 0.00 | 0.00 | 0.00 | 46 | 1007.9 |
| 20260904003035 | 65 | 286 | 12.0 | 16.0 | 0.00 | 0.00 | 0.00 | 44 | 1007.7 |
| 20260904001535 | 65 | 299 | 8.0 | 12.0 | 0.00 | 0.00 | 0.00 | 42 | 1007.7 |
| 20260904000040 | 65 | 316 | 8.0 | 11.0 | 0.00 | 0.00 | 0.00 | 43 | 1007.7 |
| 20260903234539 | 63 | 310 | 7.0 | 11.0 | 0.00 | 0.00 | 0.00 | 46 | 1007.7 |
| 20260903233030 | 64 | 297 | 6.0 | 8.0 | 0.00 | 0.00 | 0.00 | 41 | 1007.7 |
| 20260903231529 | 64 | 285 | 3.0 | 6.0 | 0.00 | 0.00 | 0.00 | 42 | 1007.8 |
| 20260903230038 | 63 | 328 | 4.0 | 10.0 | 0.00 | 0.00 | 0.00 | 42 | 1008.0 |
| 20260903224526 | 63 | 29 | 3.0 | 9.0 | 0.00 | 0.00 | 0.00 | 43 | 1008.2 |
| 20260903223022 | 63 | 84 | 4.0 | 9.0 | 0.00 | 0.00 | 0.00 | 44 | 1008.4 |
| 20260903221520 | 64 | 41 | 3.0 | 8.0 | 0.00 | 0.00 | 0.00 | 44 | 1008.6 |
| 20260903220019 | 64 | 84 | 2.0 | 13.0 | 0.00 | 0.00 | 0.00 | 44 | 1008.7 |
| 20260903214520 | 64 | 156 | 3.0 | 7.0 | 0.00 | 0.00 | 0.00 | 46 | 1008.9 |
| 20260903213019 | 64 | 302 | 0.0 | 6.0 | 0.00 | 0.00 | 0.00 | 46 | 1009.0 |
| 20260903211519 | 63 | 342 | 3.0 | 8.0 | 0.00 | 0.00 | 0.00 | 47 | 1009.1 |
| 20260903210012 | 63 | 96 | 9.0 | 11.0 | 0.00 | 0.01 | 0.00 | 49 | 1009.1 |
| 20260903204510 | 61 | 61 | 0.0 | 4.0 | 0.00 | 0.01 | 0.00 | 50 | 1009.3 |
| 20260903203024 | 62 | 143 | 2.0 | 6.0 | 0.00 | 0.01 | 0.00 | 50 | 1009.4 |
| 20260903201510 | 62 | 179 | 0.0 | 4.0 | 0.00 | 0.01 | 0.00 | 51 | 1009.6 |
| 20260903200007 | 61 | 258 | 2.0 | 6.0 | 0.00 | 0.03 | 0.00 | 51 | 1009.9 |
| 20260903194505 | 60 | 79 | 2.0 | 5.0 | 0.00 | 0.03 | 0.00 | 52 | 1009.9 |
| 20260903193007 | 60 | 323 | 2.0 | 6.0 | 0.00 | 0.03 | 0.00 | 52 | 1010.1 |
| 20260903191604 | 59 | 273 | 1.0 | 7.0 | 0.00 | 0.03 | 0.00 | 54 | 1010.2 |
| 20260903190059 | 59 | 229 | 4.0 | 10.0 | 0.00 | 0.03 | 0.00 | 55 | 1010.5 |
| 20260903184556 | 58 | 213 | 5.0 | 9.0 | 0.00 | 0.03 | 0.00 | 56 | 1010.7 |
| 20260903183055 | 58 | 288 | 5.0 | 9.0 | 0.00 | 0.03 | 0.00 | 57 | 1010.8 |
| 20260903181553 | 58 | 274 | 4.0 | 10.0 | 0.00 | 0.03 | 0.00 | 58 | 1010.6 |
| 20260903174550 | 57 | 273 | 3.0 | 5.0 | 0.00 | 0.03 | 0.00 | 58 | 1010.5 |
| 20260903173047 | 56 | 293 | 2.0 | 6.0 | 0.00 | 0.03 | 0.00 | 61 | 1010.5 |
| 20260903171559 | 56 | 258 | 2.0 | 6.0 | 0.00 | 0.03 | 0.00 | 62 | 1010.3 |
| 20260903170145 | 55 | 199 | 0.0 | 3.0 | 0.00 | 0.03 | 0.00 | 64 | 1010.5 |
| 20260903164558 | 55 | 242 | 0.0 | 2.0 | 0.00 | 0.03 | 0.00 | 67 | 1010.5 |
| 20260903163037 | 54 | 214 | 0.0 | 0.0 | 0.00 | 0.03 | 0.00 | 67 | 1010.6 |
| 20260903161535 | 53 | 273 | 0.0 | 3.0 | 0.00 | 0.03 | 0.00 | 69 | 1010.5 |
| 20260903160035 | 53 | 129 | 0.0 | 0.0 | 0.00 | 0.03 | 0.00 | 72 | 1010.8 |
| 20260903154538 | 52 | 132 | 0.0 | 2.0 | 0.00 | 0.03 | 0.00 | 70 | 1010.7 |
| 20260903153031 | 51 | 302 | 1.0 | 2.0 | 0.00 | 0.03 | 0.00 | 74 | 1010.7 |
| 20260903151530 | 50 | 262 | 0.0 | 3.0 | 0.00 | 0.03 | 0.00 | 80 | 1010.8 |
| 20260903150029 | 49 | 270 | 0.0 | 0.0 | 0.00 | 0.03 | 0.00 | 83 | 1010.7 |
| 20260903144541 | 48 | 268 | 0.0 | 0.0 | 0.00 | 0.03 | 0.00 | 84 | 1010.6 |
| 20260903143038 | 47 | 268 | 0.0 | 0.0 | 0.00 | 0.03 | 0.00 | 83 | 1010.6 |
| 20260903141523 | 0 | 0.0 | 0.0 | 0.00 | 0.03 | 0.00 | 1010.5 | ||
| 20260903140022 | 0 | 0.0 | 0.0 | 0.00 | 0.03 | 0.00 | 1010.4 | ||
| 20260903134514 | 0 | 0.0 | 0.0 | 0.00 | 0.03 | 0.00 | 1010.4 | ||
| 20260903133010 | 0 | 0.0 | 0.0 | 0.00 | 0.03 | 0.00 | 1010.2 | ||
| 20260903131506 | 0 | 0.0 | 0.0 | 0.00 | 0.03 | 0.00 | 1010.4 | ||
| 20260903130001 | 0 | 0.0 | 0.0 | 0.00 | 0.03 | 0.00 | 1010.3 | ||
| 20260903124608 | 0 | 0.0 | 0.0 | 0.00 | 0.03 | 0.00 | 1010.2 | ||
| 20260903123058 | 0 | 0.0 | 0.0 | 0.00 | 0.03 | 0.00 | 1010.2 | ||
| 20260903121600 | 0 | 0.0 | 0.0 | 0.00 | 0.03 | 0.00 | 1010.3 | ||
| 20260903120059 | 47 | 295 | 0.0 | 0.0 | 0.00 | 0.03 | 0.00 | 82 | 1010.3 |
| 20260903114550 | 45 | 278 | 0.0 | 0.0 | 0.00 | 0.03 | 0.00 | 83 | 1010.3 |
| 20260903113127 | 46 | 231 | 0.0 | 1.0 | 0.00 | 0.03 | 0.00 | 81 | 1010.2 |
| 20260903111548 | 44 | 214 | 1.0 | 4.0 | 0.00 | 0.03 | 0.00 | 85 | 1010.3 |
| 20260903110048 | 44 | 278 | 2.0 | 4.0 | 0.00 | 0.03 | 0.00 | 84 | 1010.1 |
| 20260903104556 | 44 | 279 | 4.0 | 5.0 | 0.00 | 0.03 | 0.00 | 85 | 1009.9 |
| 20260903103044 | 44 | 285 | 3.0 | 5.0 | 0.00 | 0.03 | 0.00 | 85 | 1010.0 |
| 20260903101549 | 44 | 285 | 2.0 | 3.0 | 0.00 | 0.03 | 0.00 | 84 | 1009.8 |
| 20260903101512 | 44 | 285 | 2.0 | 3.0 | 0.00 | 0.03 | 0.00 | 84 | 1009.9 |
| 20260903100041 | 45 | 264 | 2.0 | 3.0 | 0.00 | 0.03 | 0.00 | 81 | 1009.8 |
| 20260903094548 | 46 | 283 | 3.0 | 6.0 | 0.00 | 0.03 | 0.00 | 80 | 1009.7 |
| 20260903093039 | 45 | 280 | 4.0 | 5.0 | 0.00 | 0.03 | 0.00 | 82 | 1009.7 |
| 20260903091546 | 45 | 271 | 3.0 | 5.0 | 0.00 | 0.03 | 0.00 | 80 | 1009.8 |
| 20260903090038 | 47 | 245 | 2.0 | 4.0 | 0.00 | 0.03 | 0.00 | 79 | 1009.8 |
| 20260903084529 | 46 | 243 | 2.0 | 3.0 | 0.00 | 0.03 | 0.00 | 81 | 1009.7 |
| 20260903083026 | 47 | 278 | 2.0 | 3.0 | 0.00 | 0.03 | 0.00 | 79 | 1009.7 |
| 20260903081525 | 48 | 258 | 1.0 | 4.0 | 0.00 | 0.03 | 0.00 | 78 | 1009.5 |
| 20260903080023 | 48 | 259 | 1.0 | 3.0 | 0.00 | 0.03 | 0.00 | 78 | 1009.4 |
| 20260903074519 | 51 | 295 | 3.0 | 10.0 | 0.00 | 0.03 | 0.00 | 74 | 1009.4 |
| 20260903073118 | 51 | 267 | 5.0 | 10.0 | 0.00 | 0.03 | 0.00 | 76 | 1009.2 |
| 20260903071518 | 52 | 263 | 7.0 | 13.0 | 0.00 | 0.03 | 0.00 | 72 | 1008.9 |